STARLINK-32747, 62600

Orbit data source: Space-Track

STARLINK-32747, 62600 is a payload satellite owned by SpaceX/Seattle (US) in LEO that was launched on Mon, 13 Jan 2025 UTC via an FALCON 9 launch vehicle from the Air Force Eastern Test Range (AFETR). Payload-class satellites include a variety of spacecraft equipped with specific instruments for various scientific and technological missions. These include communications satellites like Starlink; space stations such as the ISS; scientific satellites like the Hubble; Earth observation satellites from companies like Planet Labs, Umbra, and HawkEye 360; GPS; miniature CubeSats for education and research; and military/defense satellites.

Loading next visibility...
Identifier
62600, 2025-008P
Orbit
LEO
Country
Flag of USUS
Related business
Manufacturer
SpaceX/Seattle
Mission
Operational Commercial Communications
Bus & Motor
STARLINK V2M, Unknown motor
Mass
730 kg wet, ~700 kg dry
Launch date (UTC)
2025-01-13 (11 months ago)
Launch vehicle
FALCON 9
Launch site
Air Force Eastern Test Range (AFETR)
Object type
Payload
Rocket body
Debris
Shape & HBR
Box + 2 Pan, 17.7 m
Radar Cross Section
33.884 m², Large (>1 m²)

Expand to show TLE details & history
Last TLE update: 11 hours ago

TLE from 11 hours ago
0 STARLINK-32747
1 62600U 25008P   25342.56090847  .00037312  00000-0  13581-2 0  9990
2 62600  43.0015  72.9047 0001328 271.3245  88.7454 15.27590881 51622
Epoch: 2025-12-08T13:27Z
TLE epoch observation values (Epoch: 2025-12-08T13:27:42.491Z)
Latitude
-0.00007°
Longitude
153.4194°
Altitude
482.772 km
Speed
7.626 km/s
True Right ascension
04h 51m 37s
True Declination
0° 00' 00"
Sunlit
Object was in full shadow at epoch
Visualization orbit readout
Latitude
Unknown
Longitude
Unknown
Altitude
Unknown
Speed
Unknown
Apparent Right ascension
Unknown
Apparent Declination
Unknown
Sunlit
N/A
Visualization observer readout
Local Sidereal Time
22:14:02
Azimuth
Unknown
Elevation
Unknown
Doppler factor
Unknown
Orbital elements
Apogee altitude
485.873 km
Perigee altitude
484.05 km
Semi-major axis
6,863.098 km
Eccentricity
0.00013
Inclination
43.0015°
RAAN
72.9047°
Arg. of periapsis
271.3245°
True anomaly
88.76061°
Mean anomaly
88.7454°
Eccentric anomaly
88.75301°
Mean motion
3.81736 °/min
Orbital period
94.31 mins
BSTAR
0.0013581
Loading maneuver chart data...
Computing Atmospheric mass density...
Loading historical data...
Loading historical data...
Loading historical data...
Loading historical data...
Loading historical data...
Loading historical data...
Loading historical data...

Documentation

Showing up to 5 results
|